Meteo Giornale » Osservazioni meteo Italia » Monte Cimone

ore: 03:55 - Osservazioni Meteo Monte Cimone
Lat. 44° 12' N Lon. 10° 42' E Alt. 2165 metri s.l.m.

sereno Europe/Rome

12 °C

Sereno

Temp. 24 Ore

11 °C

15 °C

Sud-Ovest

42.6 Km/h

Dew point 7 °C

Umidità 71 %

Visibilità  0 Km

Il sole sorge alle ore 05:59

Il sole tramonta alle ore 20:48

Data e Ora Cielo e Fenomeni T °C DP °C Um. % Pres. hPa Vis. km Vento km/h
Oggi h: 03:55 sereno Sereno 12 7 71 1025 0 SO 42.6
Oggi h: 02:40 sereno Sereno 13 9 76 1025 0 SO 38.8
Oggi h: 01:55 sereno Sereno 13 9 76 1026 0 SO 44.4
Oggi h: 01:06 sereno Sereno 13 9 76 1026 0 SO 40.7
Oggi h: 00:55 sereno Sereno 13 8 71 1026 0 SO 46.3
Oggi h: 00:33 sereno Sereno 13 9 76 1026 0 SO 50
Ieri h: 23:55 sereno Sereno 13 9 76 1026 0 SO 44.4
Ieri h: 22:55 sereno Sereno 13 9 76 1026 0 S/SO 48.1
Ieri h: 22:30 sereno Sereno 13 9 76 1026 0 S/SO 48.1
Ieri h: 22:20 sereno Sereno 13 9 76 1026 0 SO 42.6
Ieri h: 21:55 sereno Sereno 13 9 76 1026 0 SO 44.4
Ieri h: 20:55 sereno Sereno 12 9 81 1026 0 S/SO 44.4
Ieri h: 19:41 sereno Sereno 13 9 76 1025 0 S/SO 50
Ieri h: 19:31 sereno Sereno 13 9 76 1026 0 S/SO 48.1
Ieri h: 18:55 sereno Sereno 13 9 76 1026 0 S/SO 48.1
Ieri h: 17:55 sereno Sereno 13 10 81 1025 0 S/SO 50
Ieri h: 16:55 sereno Sereno 14 10 76 1026 0 S/SO 51.8
Ieri h: 16:36 sereno Sereno 14 10 76 1026 0 S/SO 51.8
Ieri h: 14:55 sereno Sereno 15 11 76 1027 0 S/SO 31.5
Ieri h: 13:55 sereno Sereno 15 11 76 1027 0 S/SO 25.9
Ieri h: 13:34 sereno Sereno 15 10 72 1028 0 S/SO 29.6
Ieri h: 12:55 sereno Sereno 15 10 72 1027 0 S/SO 29.6
Ieri h: 11:55 sereno Sereno 15 10 72 1027 0 S/SO 22.2
Ieri h: 11:06 sereno Sereno 14 10 76 1027 0 S/SO 25.9
Ieri h: 10:55 sereno Sereno 14 10 76 1027 0 S/SO 27.8
Ieri h: 10:39 sereno Sereno 14 9 71 1027 0 S/SO 31.5
Ieri h: 08:55 sereno Sereno 11 9 87 1025 0 S 38.8
Ieri h: 08:06 sereno Sereno 12 9 81 1026 0 S/SO 29.6
Ieri h: 07:55 sereno Sereno 12 9 81 1026 0 S/SO 33.3
Ieri h: 06:55 sereno Sereno 12 9 81 1026 0 S/SO 24